Regional Weather Roundup
Issued by NWS

Home | Current Version | Previous Version | Text Only | Print | Product List | Glossary On
Versions: 1 2 3 4 5 6 7 8 9 10 11 12 13 14 15 16 17 18 19 20 21 22 23 24 25 26 27 28
000
ASUS42 KTBW 240615
RWRFL
FLORIDA REGIONAL WEATHER ROUNDUP
NATIONAL WEATHER SERVICE TAMPA BAY RUSKIN FL
100 AM EST TUE JAN 24 2017

NOTE: "FAIR" INDICATES FEW OR NO CLOUDS BELOW 12,000 FEET WITH NO
SIGNIFICANT WEATHER AND/OR OBSTRUCTIONS TO VISIBILITY.

FLZ001>010-012>015-112-114-115-240700-
PANHANDLE FLORIDA

CITY           SKY/WX    TMP DP  RH WIND       PRES   REMARKS
PENSACOLA      CLEAR     55  47  74 NW8       29.84F
PENSACOLA NAS  CLEAR     55  47  74 NW5       29.85S
MILTON NAS     LGT RAIN  50  46  86 NW6       29.84
CRESTVIEW      CLEAR     53  44  71 NW7       29.85R
DUKE FIELD     CLEAR     53  45  73 NW6       29.83R
VALPARAISO     CLEAR     51  46  83 NW6       29.84S
MARY ESTHER    CLEAR     55  41  59 NW6       29.83S
PANAMA CITY    FAIR      56  48  74 W10       29.82R
TYNDALL AFB    CLEAR     58  49  71 NW13      29.82S
APALACHICOLA   CLEAR     58  50  75 NW7       29.81R

STATION/POSITION SKY/WX   TEMP    WIND        PRES    WAVE   SWELL
                          AIR SEA DIR/SP/G            HT/PER HT/PER
                          (F)     (DEG/KT/KT) (MB)    (FT/S) (FT/S)
30.1N   87.6W              63 65  310/ 16/ 17 1010.6    4/ 5   2/ 7
28.8N   86.0W              70 74              1010.7   10/ 8   7/ 8
PANAMA CITY BEAC           60 65  310/ 11/ 14 1010.2R
TOWER C                    65     320/ 27/ 28 1009.3F
28.5N   84.5W              70 70  310/ 21/ 25 1009.1S  11/11   7/11

$$
FLZ011-016>038-118-127-128-134-139-239-240700-
NORTH FLORIDA

CITY           SKY/WX    TMP DP  RH WIND       PRES   REMARKS
MARIANNA       CLEAR     55  48  77 W7        29.79F
TALLAHASSEE    CLEAR     54  48  80 W8        29.78S
PERRY          CLEAR     58  48  69 NW9       29.78R
CROSS CITY     CLEAR     59  48  67 NW10      29.77S
LAKE CITY      FAIR      55  48  76 W14       29.74R
GAINESVILLE    CLEAR     59  47  64 W13       29.74R
WILLISTON      CLEAR     61  50  67 W9        29.76S
PALATKA        FAIR      57  48  72 NW10      29.73R
MAYPORT NAS    CLEAR     59  47  64 W16G28    29.67S
JACKSONVILLE   CLEAR     57  48  72 W14       29.68R
JAX NAS        CLEAR     60  47  61 W16G26    29.70R
FERNANDINA BEA FAIR      59  48  67 W15G23    29.66R
ST AUGUSTINE   CLEAR     59  47  64 W13G20    29.70R

STATION/POSITION SKY/WX   TEMP    WIND        PRES    WAVE   SWELL
                          AIR SEA DIR/SP/G            HT/PER HT/PER
                          (F)     (DEG/KT/KT) (MB)    (FT/S) (FT/S)
SHELL POINT      NOT AVBL
KEATON BEACH               62     310/ 16/ 20 1008.0R
CEDAR KEY                  65     310/ 15/ 22 1008.4R
FERNANDINA                 58 65  270/ 13/ 18 1005.2R
30.7N   81.3W                 62                N/A     2/ 3   2/14
MAYPORT                    59 64  290/ 17/ 24 1004.9R
31.4N   80.9W              59 60  270/ 19/ 21 1002.0    4/ 4
ST AUGUSTINE               58 63  280/ 11/ 16 1006.2R

$$
FLZ040-043>046-052-053-057-058-063-144-240700-
INTERIOR CENTRAL FLORIDA

CITY           SKY/WX    TMP DP  RH WIND       PRES   REMARKS
OCALA          CLEAR     61  48  63 NW9       29.75S
THE VILLAGES     N/A     61  57  88 S13       29.65S
LEESBURG       CLEAR     62  52  69 NW14G20   29.76R
SANFORD        CLEAR     61  52  72 W16       29.73S
ORLANDO EXEC   CLEAR     61  53  75 W12       29.74S
ORLANDO INTL   CLEAR     60  53  77 W9        29.75S
KISSIMMEE      CLEAR     59  54  83 W9        29.76S
WINTER HAVEN   CLEAR     61  53  75 W10       29.77S
LAKELAND       CLEAR     61  55  82 W10       29.78S
BARTOW         FAIR      61  55  82 W10       29.78R
OKEECHOBEE     CLEAR     55  52  88 W5        29.77F

$$
FLZ041-047-054-059-064-141-147-240700-
EAST CENTRAL FLORIDA

CITY           SKY/WX    TMP DP  RH WIND       PRES   REMARKS
DAYTONA BEACH  CLEAR     59  50  72 W13       29.72R
DELAND         CLEAR     57  52  82 W8        29.73R
JFK SPACE CTR  CLEAR     60  53  78 W9        29.71S
CAPE CANAVERAL CLEAR     61  54  77 W12       29.71R
PATRICK AFB    CLEAR     60  55  83 W14       29.73R
MELBOURNE      CLEAR     57  54  89 W8        29.74R
VERO BEACH     CLEAR     58  53  84 W9        29.75S
FT PIERCE      CLEAR     58  54  86 W7        29.75F
STUART         CLEAR     63  55  77 W8        29.78S

STATION/POSITION SKY/WX   TEMP    WIND        PRES    WAVE   SWELL
                          AIR SEA DIR/SP/G            HT/PER HT/PER
                          (F)     (DEG/KT/KT) (MB)    (FT/S) (FT/S)
TRIDENT PIER               61 69  260/  9/ 14 1007.7R
28.4N   80.5W                 73                N/A     2/13
27.5N   80.2W                 73                N/A     4/ 5   2/14

$$
FLZ050-056-061-142-242-148-248-149-249-151-251-155-255-
160-260-240700-
WEST CENTRAL FLORIDA

CITY           SKY/WX    TMP DP  RH WIND       PRES   REMARKS
CRYSTAL RIVER  FAIR      63  52  67 NW10G22   29.78S
INVERNESS      FAIR      63  52  67 W7        29.77S
BROOKSVILLE    CLEAR     65  53  65 NW18G31   29.79R
CLEARWATER AIR FAIR      64  55  72 NW18G24   29.80S
ST PETE CLEARW PTCLDY    66  55  67 NW18G30   29.80R
TAMPA INTL     PTCLDY    66  55  67 NW12G23   29.80R
TAMPA EXEC     PTCLDY    64  55  72 NW7       29.80R
PLANT CITY     CLEAR     64  57  77 W12G17    29.80S
MACDILL AFB    CLEAR     65  59  81 CALM      29.79S
PETER O KNIGHT CLOUDY    68  59  73 NW8G17    29.80S
ST PETERSBURG  CLEAR     66  56  70 NW10G25   29.78S
SARASOTA       MOCLDY    66  56  70 NW15G22   29.80R
VENICE         MOCLDY    68  59  73 NW18G25   29.82S

STATION/POSITION SKY/WX   TEMP    WIND        PRES    WAVE   SWELL
                          AIR SEA DIR/SP/G            HT/PER HT/PER
                          (F)     (DEG/KT/KT) (MB)    (FT/S) (FT/S)
27.3N   84.2W                 76                N/A    14/11   8/11
CLEARWATER BEACH                  310/ 23/ 26 1009.2R
MIDDLE TAMPA BAY           67     330/ 24/ 28 1009.5R
VENICE                     68 69  320/ 23/ 26 1009.0R

$$
FLZ066-069-070-075>078-162-262-165-265-240700-
SOUTHWEST FLORIDA AND KEYS

CITY           SKY/WX    TMP DP  RH WIND       PRES   REMARKS
PUNTA GORDA    CLEAR     64  56  75 NW12      29.82R
FT MYERS       CLEAR     66  58  75 NW10      29.80R
SOUTHWEST INTL CLEAR     66  56  70 NW10      29.80S
NAPLES         CLOUDY    69  59  70 NW13G28   29.81R
MARCO ISLAND   MOCLDY    68  55  64 NW16G29   29.81R
MARATHON       PTCLDY    73  60  63 W18G29    29.83R
KEY WEST NAS   PTCLDY    71  58  63 NW20      29.85R
KEY WEST INTL  CLEAR     71  60  68 NW20G25   29.85S

STATION/POSITION SKY/WX   TEMP    WIND        PRES    WAVE   SWELL
                          AIR SEA DIR/SP/G            HT/PER HT/PER
                          (F)     (DEG/KT/KT) (MB)    (FT/S) (FT/S)
NAPLES                        71              1009.4R
26.0N   85.6W              71 74  310/ 16/ 19 1012.3F  13/ 8  11/ 8
DRY TORTUGAS               72     320/ 19/ 21 1011.1R
SAND KEY                   72     330/ 23/ 27 1011.3R
LONG KEY                   71 72  310/ 26/ 29 1009.8R
MOLASSES REEF              71 73  310/ 23/ 26 1009.0

$$
FLZ067-068-071>074-168-172>174-240700-
SOUTHEAST FLORIDA

CITY           SKY/WX    TMP DP  RH WIND       PRES   REMARKS
W PALM BEACH   PTCLDY    62  54  74 NW13      29.78R
FT LAUDER-EXEC CLEAR     64  56  75 NW8       29.78R
FT LAUDERDALE  CLEAR     64  57  78 NW9G20    29.77S
POMPANO BEACH  CLEAR     64  57  78 NW13      29.78R
PEMBROKE PINES CLEAR     64  57  78 NW12      29.80R
OPA LOCKA      CLEAR     66  58  75 NW14      29.80R
MIAMI          PTCLDY    67  58  72 W7        29.79R
WEST KENDALL   CLEAR     61  57  87 W8        29.80R
HOMESTEAD      CLEAR     64  60  86 W12       29.79R

STATION/POSITION SKY/WX   TEMP    WIND        PRES    WAVE   SWELL
                          AIR SEA DIR/SP/G            HT/PER HT/PER
                          (F)     (DEG/KT/KT) (MB)    (FT/S) (FT/S)
PORT EVERGLADES            66     300/ 15/ 21 1008.1R
VIRGINIA KEY               67 79  300/ 11/ 17 1008.7R
LAKE WORTH                 64 74  310/ 13/ 18 1007.7S
FOWEY ROCKS                68 73  280/ 25/ 27 1008.8R

$$





USA.gov is the U.S. government's official web portal to all federal, state and local government web resources and services.